Location: Unspecified
(42.9300°N, 71.1866°W)
Time: 12:47:34
(UTC-04:00)

Cosmos 1674 - Visible Passes

Search period start: 18 April 2014 00:00
Search period end: 28 April 2014 00:00
Orbit: 517 x 546 km, 82.5° (Epoch: 17 April)

Date Brightness Start Highest point End Pass type
(mag) Time Alt. Az. Time Alt. Az. Time Alt. Az.
20 Apr 6.0 05:19:59 10° ESE 05:22:16 15° E 05:24:33 10° NE visible
21 Apr 6.0 05:10:04 10° ESE 05:12:11 14° E 05:14:18 10° NE visible
22 Apr 6.0 05:00:10 10° ESE 05:02:05 13° E 05:04:00 10° NE visible
23 Apr 6.0 04:50:18 10° ESE 04:51:59 13° E 04:53:40 10° ENE visible
24 Apr 6.1 04:40:27 10° ESE 04:41:52 12° E 04:43:16 10° ENE visible
25 Apr 6.1 04:30:40 10° E 04:31:44 11° E 04:32:47 10° ENE visible
26 Apr 6.3 04:21:08 10° E 04:21:35 10° E 04:22:02 10° ENE visible
